QPF
0.03 0.03 0.04 0.04 0.04 0.02 0.01 0.01 0.02 0.03 0.02 0.02 0.02 0.02 0.02 0.02 0.02 0.02 0.03 0.03 0.01 0.02 0.03 0.05 0.07 0.06 0.06 0.07 0.07 0.07 0.11 0.18 0.22 0.21 0.12 0.09 0.11 0.13 0.10 0.08 0.07 0.04 0.04
0.01 0.02 0.02 0.02 0.02 0.02 0.01 0.02 0.03 0.05 0.04 0.03 0.02 0.03 0.02 0.02 0.01 0.02 0.03 0.03 0.02 0.01 0.02 0.04 0.06 0.06 0.06 0.07 0.06 0.08 0.11 0.13 0.13 0.18 0.20 0.15 0.11 0.11 0.09 0.09 0.09 0.05 0.05
0.01 0.01 0.01 0.02 0.03 0.02 0.02 0.02 0.04 0.05 0.03 0.04 0.03 0.04 0.03 0.02 0.01 0.01 0.02 0.01 0.01 0.01 0.02 0.03 0.05 0.05 0.05 0.05 0.05 0.08 0.12 0.11 0.11 0.12 0.17 0.13 0.10 0.10 0.09 0.09 0.10 0.07 0.07
0.01 0.00 0.01 0.02 0.03 0.03 0.03 0.04 0.04 0.04 0.03 0.03 0.03 0.03 0.02 0.02 0.02 0.02 0.01 0.01 0.01 0.01 0.02 0.03 0.04 0.05 0.05 0.05 0.05 0.08 0.12 0.11 0.12 0.09 0.08 0.07 0.07 0.09 0.08 0.09 0.11 0.07 0.06
0.01 0.01 0.01 0.03 0.03 0.04 0.05 0.07 0.07 0.05 0.06 0.05 0.04 0.02 0.02 0.02 0.03 0.03 0.02 0.01 0.01 0.01 0.03 0.03 0.04 0.04 0.04 0.05 0.04 0.06 0.09 0.11 0.09 0.05 0.04 0.05 0.07 0.07 0.07 0.09 0.09 0.07 0.05
0.01 0.01 0.01 0.04 0.07 0.08 0.07 0.05 0.06 0.07 0.06 0.05 0.05 0.03 0.02 0.02 0.03 0.03 0.03 0.02 0.02 0.02 0.03 0.03 0.03 0.03 0.04 0.04 0.05 0.07 0.08 0.11 0.07 0.04 0.03 0.04 0.04 0.07 0.09 0.09 0.07 0.07 0.05
0.00 0.00 0.01 0.06 0.06 0.04 0.06 0.08 0.06 0.05 0.04 0.04 0.05 0.03 0.02 0.03 0.03 0.03 0.04 0.03 0.02 0.03 0.04 0.04 0.04 0.03 0.04 0.04 0.05 0.06 0.07 0.08 0.04 0.03 0.02 0.03 0.03 0.07 0.09 0.07 0.06 0.06 0.06
0.00 0.00 0.01 0.05 0.04 0.03 0.06 0.07 0.04 0.02 0.02 0.02 0.03 0.04 0.03 0.03 0.02 0.03 0.04 0.03 0.03 0.03 0.04 0.04 0.05 0.03 0.03 0.04 0.04 0.05 0.06 0.05 0.03 0.02 0.02 0.02 0.03 0.07 0.08 0.06 0.04 0.05 0.05
0.01 0.00 0.01 0.02 0.03 0.04 0.05 0.04 0.02 0.02 0.02 0.02 0.02 0.02 0.02 0.02 0.03 0.04 0.05 0.05 0.04 0.04 0.03 0.04 0.04 0.03 0.03 0.04 0.04 0.05 0.06 0.04 0.02 0.02 0.02 0.03 0.04 0.07 0.07 0.05 0.04 0.04 0.05
0.01 0.01 0.01 0.01 0.01 0.01 0.02 0.02 0.02 0.02 0.01 0.01 0.01 0.02 0.02 0.04 0.08 0.07 0.06 0.05 0.05 0.05 0.05 0.04 0.03 0.04 0.03 0.05 0.05 0.06 0.06 0.04 0.02 0.01 0.01 0.03 0.06 0.07 0.06 0.05 0.04 0.04 0.04
0.01 0.01 0.01 0.01 0.01 0.01 0.01 0.02 0.02 0.01 0.01 0.01 0.01 0.02 0.02 0.01 0.04 0.06 0.05 0.05 0.05 0.05 0.06 0.06 0.04 0.04 0.03 0.04 0.06 0.06 0.05 0.02 0.01 0.01 0.01 0.04 0.05 0.06 0.07 0.07 0.04 0.04 0.03
0.02 0.02 0.01 0.01 0.00 0.00 0.01 0.01 0.01 0.01 0.01 0.00 0.00 0.01 0.00 0.01 0.02 0.02 0.03 0.04 0.05 0.06 0.06 0.06 0.05 0.04 0.03 0.03 0.05 0.05 0.03 0.02 0.02 0.02 0.02 0.04 0.06 0.07 0.09 0.08 0.07 0.06 0.04
0.04 0.05 0.05 0.02 0.01 0.01 0.01 0.00 0.00 0.01 0.01 0.01 0.00 0.00 0.01 0.02 0.02 0.01 0.02 0.03 0.04 0.04 0.04 0.04 0.05 0.05 0.04 0.03 0.04 0.04 0.03 0.02 0.02 0.03 0.04 0.03 0.06 0.08 0.09 0.08 0.09 0.09 0.05
0.09 0.08 0.07 0.05 0.02 0.01 0.01 0.01 0.01 0.01 0.01 0.01 0.01 0.01 0.00 0.00 0.00 0.00 0.01 0.03 0.04 0.05 0.05 0.04 0.04 0.04 0.03 0.03 0.05 0.04 0.03 0.03 0.03 0.04 0.05 0.05 0.06 0.08 0.09 0.09 0.09 0.10 0.06
0.11 0.12 0.07 0.05 0.04 0.03 0.02 0.02 0.02 0.02 0.01 0.01 0.01 0.01 0.00 0.00 0.00 0.00 0.01 0.04 0.04 0.06 0.08 0.07 0.05 0.04 0.03 0.04 0.06 0.06 0.04 0.04 0.05 0.04 0.05 0.06 0.08 0.08 0.09 0.10 0.12 0.11 0.10
0.02 0.04 0.04 0.06 0.06 0.05 0.04 0.04 0.03 0.03 0.02 0.01 0.01 0.01 0.01 0.01 0.01 0.01 0.01 0.02 0.02 0.04 0.06 0.06 0.05 0.05 0.05 0.05 0.08 0.09 0.06 0.05 0.05 0.05 0.06 0.07 0.07 0.07 0.07 0.08 0.10 0.10 0.10
0.02 0.03 0.05 0.07 0.11 0.09 0.06 0.06 0.05 0.04 0.04 0.02 0.02 0.02 0.02 0.02 0.02 0.02 0.02 0.02 0.03 0.03 0.03 0.04 0.04 0.05 0.06 0.06 0.08 0.09 0.08 0.06 0.06 0.05 0.06 0.06 0.06 0.06 0.06 0.06 0.07 0.09 0.11
0.02 0.03 0.04 0.05 0.06 0.06 0.04 0.04 0.04 0.04 0.04 0.03 0.03 0.03 0.02 0.03 0.03 0.03 0.03 0.03 0.03 0.03 0.03 0.03 0.04 0.04 0.04 0.05 0.06 0.08 0.07 0.06 0.06 0.06 0.07 0.06 0.07 0.07 0.07 0.06 0.06 0.07 0.07
0.04 0.04 0.04 0.05 0.05 0.05 0.04 0.05 0.06 0.06 0.06 0.04 0.04 0.03 0.02 0.01 0.02 0.03 0.03 0.02 0.03 0.04 0.06 0.05 0.04 0.05 0.05 0.06 0.08 0.09 0.10 0.09 0.08 0.08 0.08 0.07 0.07 0.06 0.05 0.04 0.05 0.06 0.06
0.05 0.04 0.04 0.04 0.05 0.06 0.08 0.10 0.12 0.10 0.07 0.05 0.04 0.03 0.03 0.03 0.02 0.02 0.02 0.01 0.02 0.04 0.08 0.08 0.07 0.08 0.08 0.09 0.11 0.13 0.15 0.14 0.10 0.10 0.09 0.08 0.07 0.05 0.03 0.03 0.03 0.03 0.05
0.04 0.04 0.04 0.05 0.08 0.09 0.10 0.12 0.13 0.12 0.10 0.09 0.07 0.06 0.06 0.05 0.04 0.03 0.03 0.03 0.03 0.04 0.08 0.10 0.09 0.09 0.09 0.09 0.10 0.13 0.16 0.17 0.13 0.11 0.09 0.08 0.06 0.04 0.03 0.02 0.02 0.02 0.03
0.03 0.04 0.07 0.09 0.12 0.12 0.12 0.12 0.11 0.09 0.09 0.08 0.10 0.10 0.08 0.06 0.05 0.03 0.03 0.03 0.03 0.03 0.04 0.07 0.10 0.12 0.12 0.11 0.09 0.10 0.13 0.16 0.14 0.10 0.08 0.07 0.04 0.04 0.03 0.01 0.02 0.02 0.02
0.03 0.06 0.11 0.14 0.16 0.17 0.17 0.13 0.09 0.08 0.08 0.09 0.09 0.08 0.07 0.05 0.04 0.04 0.04 0.04 0.04 0.03 0.04 0.06 0.08 0.10 0.12 0.13 0.11 0.10 0.11 0.11 0.12 0.11 0.08 0.06 0.04 0.04 0.03 0.02 0.02 0.02 0.02
0.04 0.08 0.11 0.17 0.19 0.19 0.16 0.11 0.11 0.12 0.11 0.08 0.06 0.05 0.05 0.05 0.05 0.04 0.04 0.04 0.03 0.04 0.04 0.05 0.05 0.05 0.07 0.10 0.11 0.11 0.10 0.10 0.10 0.10 0.08 0.05 0.04 0.03 0.02 0.02 0.03 0.02 0.02
0.05 0.07 0.09 0.13 0.15 0.15 0.13 0.13 0.14 0.13 0.09 0.06 0.05 0.06 0.06 0.06 0.06 0.05 0.04 0.04 0.04 0.04 0.04 0.04 0.05 0.05 0.06 0.08 0.09 0.11 0.12 0.12 0.10 0.09 0.08 0.05 0.03 0.02 0.02 0.02 0.02 0.03 0.02
0.06 0.08 0.09 0.11 0.12 0.09 0.06 0.07 0.09 0.07 0.04 0.05 0.07 0.08 0.07 0.06 0.06 0.05 0.04 0.04 0.04 0.04 0.04 0.05 0.06 0.07 0.07 0.07 0.07 0.07 0.07 0.08 0.08 0.07 0.06 0.06 0.04 0.02 0.02 0.02 0.02 0.01 0.02
MSLP
1006.26 1005.46 1004.82 1004.42 1004.28 1004.37 1004.63 1004.97 1005.31 1005.59 1005.77 1005.86 1005.91 1005.97 1006.10 1006.33 1006.67 1007.10 1007.56 1008.01 1008.37 1008.62 1008.77 1008.83 1008.83 1008.81 1008.82 1008.85 1008.91 1008.98 1009.03 1009.04 1009.02 1008.95 1008.86 1008.77 1008.69 1008.63 1008.57 1008.51 1008.42 1008.28 1008.10
1006.06 1005.02 1004.13 1003.50 1003.18 1003.19 1003.46 1003.92 1004.46 1004.99 1005.42 1005.74 1005.96 1006.12 1006.28 1006.49 1006.78 1007.14 1007.54 1007.95 1008.31 1008.59 1008.77 1008.86 1008.89 1008.89 1008.89 1008.91 1008.97 1009.04 1009.12 1009.18 1009.20 1009.20 1009.17 1009.12 1009.06 1008.99 1008.92 1008.84 1008.73 1008.59 1008.42
1005.42 1004.08 1002.89 1001.99 1001.50 1001.44 1001.77 1002.41 1003.23 1004.08 1004.86 1005.49 1005.95 1006.26 1006.48 1006.67 1006.89 1007.16 1007.49 1007.85 1008.19 1008.48 1008.70 1008.83 1008.90 1008.93 1008.94 1008.97 1009.04 1009.13 1009.24 1009.35 1009.45 1009.51 1009.54 1009.54 1009.50 1009.44 1009.37 1009.27 1009.15 1009.01 1008.84
1004.42 1002.75 1001.24 1000.09 999.42 999.31 999.73 1000.58 1001.71 1002.94 1004.10 1005.08 1005.81 1006.31 1006.62 1006.81 1006.98 1007.17 1007.41 1007.71 1008.04 1008.35 1008.61 1008.80 1008.92 1008.99 1009.04 1009.10 1009.18 1009.30 1009.45 1009.62 1009.78 1009.91 1010.00 1010.03 1010.02 1009.97 1009.88 1009.77 1009.64 1009.50 1009.35
1003.25 1001.28 999.48 998.09 997.28 997.14 997.64 998.70 1000.12 1001.71 1003.24 1004.56 1005.57 1006.26 1006.67 1006.89 1007.02 1007.15 1007.34 1007.60 1007.92 1008.26 1008.58 1008.84 1009.03 1009.16 1009.25 1009.33 1009.44 1009.59 1009.77 1009.98 1010.19 1010.38 1010.51 1010.57 1010.57 1010.52 1010.42 1010.30 1010.17 1010.04 1009.90
1002.19 999.98 997.96 996.40 995.48 995.31 995.88 997.10 998.75 1000.62 1002.45 1004.05 1005.29 1006.14 1006.65 1006.91 1007.04 1007.14 1007.31 1007.56 1007.90 1008.29 1008.67 1009.01 1009.27 1009.46 1009.60 1009.72 1009.85 1010.01 1010.22 1010.45 1010.69 1010.90 1011.05 1011.13 1011.13 1011.07 1010.96 1010.83 1010.70 1010.57 1010.46
1001.50 999.17 997.04 995.37 994.39 994.20 994.80 996.09 997.88 999.90 1001.91 1003.68 1005.07 1006.05 1006.64 1006.94 1007.09 1007.19 1007.36 1007.64 1008.01 1008.46 1008.91 1009.32 1009.66 1009.91 1010.09 1010.23 1010.38 1010.55 1010.76 1011.00 1011.24 1011.45 1011.60 1011.66 1011.65 1011.58 1011.45 1011.32 1011.18 1011.07 1010.98
1001.39 999.07 996.94 995.29 994.29 994.08 994.66 995.93 997.71 999.74 1001.78 1003.59 1005.03 1006.06 1006.69 1007.03 1007.21 1007.34 1007.55 1007.86 1008.28 1008.78 1009.30 1009.77 1010.17 1010.46 1010.67 1010.84 1010.99 1011.16 1011.36 1011.58 1011.80 1011.98 1012.11 1012.16 1012.12 1012.03 1011.89 1011.75 1011.63 1011.54 1011.48
1001.92 999.76 997.78 996.22 995.27 995.04 995.55 996.70 998.34 1000.23 1002.14 1003.86 1005.24 1006.24 1006.87 1007.23 1007.44 1007.62 1007.87 1008.23 1008.70 1009.24 1009.80 1010.32 1010.74 1011.07 1011.30 1011.47 1011.62 1011.78 1011.95 1012.15 1012.33 1012.48 1012.57 1012.59 1012.53 1012.42 1012.28 1012.15 1012.04 1011.97 1011.94
1003.00 1001.12 999.39 998.02 997.15 996.91 997.30 998.27 999.66 1001.30 1002.96 1004.47 1005.70 1006.60 1007.20 1007.57 1007.81 1008.03 1008.32 1008.72 1009.23 1009.79 1010.37 1010.90 1011.34 1011.67 1011.91 1012.09 1012.23 1012.37 1012.52 1012.68 1012.83 1012.94 1013.00 1012.99 1012.91 1012.79 1012.66 1012.54 1012.45 1012.41 1012.41
1004.46 1002.94 1001.53 1000.39 999.65 999.39 999.65 1000.38 1001.46 1002.76 1004.10 1005.33 1006.35 1007.12 1007.66 1008.02 1008.29 1008.56 1008.89 1009.32 1009.84 1010.40 1010.97 1011.48 1011.91 1012.24 1012.48 1012.65 1012.79 1012.92 1013.05 1013.18 1013.30 1013.37 1013.40 1013.37 1013.28 1013.17 1013.05 1012.95 1012.89 1012.88 1012.91
1006.04 1004.91 1003.85 1002.96 1002.35 1002.10 1002.22 1002.70 1003.45 1004.39 1005.38 1006.31 1007.11 1007.74 1008.21 1008.56 1008.86 1009.18 1009.55 1010.00 1010.51 1011.05 1011.59 1012.07 1012.47 1012.78 1013.01 1013.18 1013.32 1013.45 1013.57 1013.68 1013.76 1013.81 1013.81 1013.76 1013.68 1013.58 1013.48 1013.41 1013.38 1013.40 1013.44
1007.53 1006.77 1006.03 1005.38 1004.91 1004.65 1004.65 1004.89 1005.35 1005.95 1006.62 1007.28 1007.87 1008.38 1008.80 1009.16 1009.50 1009.86 1010.27 1010.73 1011.23 1011.74 1012.22 1012.66 1013.02 1013.31 1013.53 1013.70 1013.85 1013.98 1014.09 1014.19 1014.25 1014.28 1014.26 1014.20 1014.12 1014.04 1013.97 1013.93 1013.93 1013.96 1014.01
1008.77 1008.30 1007.84 1007.40 1007.03 1006.79 1006.69 1006.75 1006.95 1007.28 1007.69 1008.13 1008.58 1009.00 1009.40 1009.79 1010.19 1010.60 1011.05 1011.52 1012.00 1012.46 1012.90 1013.28 1013.60 1013.86 1014.08 1014.26 1014.42 1014.55 1014.67 1014.75 1014.79 1014.80 1014.76 1014.69 1014.61 1014.54 1014.50 1014.48 1014.51 1014.55 1014.61
1009.72 1009.46 1009.18 1008.89 1008.61 1008.38 1008.22 1008.15 1008.19 1008.34 1008.57 1008.87 1009.22 1009.60 1010.02 1010.45 1010.91 1011.38 1011.86 1012.34 1012.80 1013.23 1013.61 1013.95 1014.23 1014.48 1014.69 1014.88 1015.05 1015.19 1015.30 1015.37 1015.39 1015.36 1015.30 1015.22 1015.13 1015.07 1015.04 1015.05 1015.09 1015.14 1015.19
1010.42 1010.26 1010.09 1009.89 1009.67 1009.46 1009.28 1009.16 1009.12 1009.16 1009.30 1009.53 1009.84 1010.22 1010.66 1011.15 1011.66 1012.18 1012.69 1013.18 1013.63 1014.02 1014.37 1014.67 1014.92 1015.15 1015.36 1015.56 1015.73 1015.87 1015.98 1016.03 1016.02 1015.96 1015.86 1015.76 1015.66 1015.59 1015.56 1015.58 1015.63 1015.69 1015.74
1010.98 1010.86 1010.72 1010.56 1010.39 1010.21 1010.05 1009.93 1009.87 1009.89 1010.01 1010.22 1010.53 1010.92 1011.38 1011.90 1012.45 1013.00 1013.52 1014.01 1014.44 1014.81 1015.13 1015.39 1015.63 1015.85 1016.06 1016.25 1016.43 1016.57 1016.66 1016.68 1016.64 1016.55 1016.41 1016.27 1016.15 1016.07 1016.04 1016.05 1016.10 1016.16 1016.21
1011.55 1011.40 1011.25 1011.11 1010.97 1010.84 1010.73 1010.65 1010.64 1010.68 1010.81 1011.03 1011.34 1011.73 1012.19 1012.71 1013.26 1013.80 1014.32 1014.79 1015.20 1015.55 1015.84 1016.09 1016.31 1016.52 1016.72 1016.92 1017.09 1017.22 1017.29 1017.29 1017.22 1017.09 1016.92 1016.74 1016.59 1016.49 1016.44 1016.44 1016.49 1016.55 1016.60
1012.20 1012.00 1011.83 1011.68 1011.57 1011.50 1011.47 1011.47 1011.53 1011.63 1011.79 1012.02 1012.31 1012.68 1013.10 1013.57 1014.07 1014.57 1015.05 1015.49 1015.87 1016.19 1016.45 1016.69 1016.90 1017.10 1017.30 1017.49 1017.65 1017.77 1017.83 1017.81 1017.71 1017.55 1017.35 1017.15 1016.97 1016.84 1016.77 1016.75 1016.78 1016.84 1016.89
1012.96 1012.71 1012.51 1012.37 1012.30 1012.29 1012.35 1012.45 1012.59 1012.75 1012.95 1013.17 1013.43 1013.72 1014.07 1014.45 1014.86 1015.28 1015.69 1016.07 1016.41 1016.70 1016.94 1017.16 1017.36 1017.56 1017.75 1017.93 1018.08 1018.19 1018.24 1018.21 1018.10 1017.92 1017.71 1017.49 1017.28 1017.12 1017.03 1016.99 1017.00 1017.04 1017.09
1013.78 1013.50 1013.29 1013.16 1013.14 1013.20 1013.35 1013.54 1013.76 1013.99 1014.20 1014.40 1014.60 1014.80 1015.03 1015.29 1015.58 1015.89 1016.21 1016.53 1016.81 1017.07 1017.30 1017.50 1017.69 1017.88 1018.06 1018.23 1018.38 1018.48 1018.52 1018.49 1018.39 1018.22 1018.00 1017.77 1017.55 1017.37 1017.25 1017.17 1017.16 1017.18 1017.22
1014.57 1014.30 1014.09 1013.99 1014.01 1014.14 1014.37 1014.65 1014.94 1015.21 1015.43 1015.60 1015.72 1015.82 1015.92 1016.04 1016.21 1016.40 1016.63 1016.87 1017.11 1017.34 1017.55 1017.73 1017.91 1018.08 1018.25 1018.41 1018.54 1018.65 1018.70 1018.68 1018.59 1018.44 1018.24 1018.02 1017.79 1017.60 1017.44 1017.33 1017.27 1017.25 1017.27
1015.26 1015.01 1014.82 1014.74 1014.80 1014.99 1015.28 1015.62 1015.97 1016.27 1016.49 1016.62 1016.68 1016.69 1016.67 1016.68 1016.72 1016.82 1016.96 1017.14 1017.34 1017.54 1017.73 1017.90 1018.06 1018.22 1018.36 1018.50 1018.63 1018.73 1018.79 1018.79 1018.74 1018.62 1018.45 1018.25 1018.03 1017.82 1017.63 1017.48 1017.37 1017.30 1017.27
1015.78 1015.56 1015.40 1015.34 1015.43 1015.64 1015.97 1016.36 1016.74 1017.06 1017.29 1017.40 1017.41 1017.35 1017.25 1017.17 1017.13 1017.15 1017.24 1017.37 1017.54 1017.72 1017.89 1018.05 1018.20 1018.32 1018.44 1018.56 1018.67 1018.77 1018.84 1018.87 1018.85 1018.77 1018.64 1018.47 1018.27 1018.05 1017.83 1017.63 1017.46 1017.33 1017.24
1016.13 1015.96 1015.82 1015.77 1015.86 1016.09 1016.43 1016.83 1017.23 1017.57 1017.80 1017.91 1017.90 1017.80 1017.67 1017.54 1017.46 1017.44 1017.50 1017.61 1017.76 1017.93 1018.09 1018.23 1018.34 1018.44 1018.53 1018.61 1018.70 1018.79 1018.87 1018.92 1018.94 1018.91 1018.83 1018.70 1018.52 1018.30 1018.06 1017.81 1017.58 1017.37 1017.21
1016.36 1016.23 1016.11 1016.06 1016.14 1016.35 1016.68 1017.07 1017.47 1017.82 1018.06 1018.18 1018.18 1018.10 1017.96 1017.83 1017.74 1017.72 1017.77 1017.88 1018.02 1018.18 1018.32 1018.43 1018.52 1018.58 1018.63 1018.68 1018.74 1018.81 1018.89 1018.97 1019.03 1019.05 1019.01 1018.92 1018.77 1018.56 1018.31 1018.03 1017.75 1017.47 1017.24
Thickness
5784 5785 5783 5780 5778 5776 5775 5774 5773 5773 5772 5771 5770 5770 5769 5768 5767 5767 5766 5766 5766 5766 5766 5766 5765 5765 5765 5764 5764 5764 5763 5761 5760 5759 5757 5756 5755 5754 5753 5752 5751 5750 5749
5789 5786 5783 5780 5778 5776 5775 5774 5773 5772 5771 5770 5769 5769 5768 5767 5767 5767 5766 5765 5765 5765 5765 5764 5763 5763 5763 5762 5762 5761 5761 5759 5758 5757 5756 5755 5754 5752 5751 5750 5749 5748 5748
5790 5786 5783 5780 5778 5776 5775 5774 5772 5771 5770 5769 5768 5768 5767 5766 5766 5766 5765 5764 5764 5764 5764 5763 5762 5762 5761 5761 5760 5759 5758 5757 5756 5755 5754 5753 5752 5751 5750 5748 5747 5747 5746
5790 5786 5783 5780 5778 5776 5774 5773 5772 5771 5769 5768 5767 5767 5766 5765 5765 5765 5764 5763 5763 5763 5762 5762 5761 5760 5759 5759 5758 5758 5756 5755 5754 5753 5752 5751 5750 5749 5748 5747 5746 5745 5744
5789 5785 5782 5779 5777 5775 5774 5773 5771 5770 5768 5767 5766 5765 5765 5764 5764 5764 5763 5762 5762 5761 5760 5760 5759 5758 5758 5757 5757 5756 5755 5753 5752 5751 5749 5749 5748 5748 5747 5746 5745 5744 5743
5788 5785 5782 5779 5777 5775 5773 5772 5770 5769 5767 5766 5765 5764 5763 5763 5762 5762 5761 5761 5760 5760 5759 5759 5758 5757 5756 5755 5755 5754 5753 5752 5750 5749 5748 5747 5747 5746 5745 5745 5743 5742 5741
5786 5784 5781 5779 5777 5776 5773 5771 5769 5768 5766 5765 5764 5763 5763 5761 5761 5760 5760 5759 5759 5758 5758 5757 5756 5756 5755 5754 5753 5753 5752 5750 5749 5747 5747 5746 5746 5745 5744 5744 5743 5742 5740
5786 5782 5780 5778 5777 5775 5772 5770 5768 5767 5765 5764 5763 5762 5761 5760 5760 5759 5758 5758 5757 5757 5756 5756 5755 5754 5754 5753 5752 5751 5751 5750 5748 5747 5745 5745 5744 5744 5743 5742 5741 5740 5738
5784 5781 5778 5776 5775 5773 5770 5768 5766 5765 5763 5762 5761 5760 5759 5759 5758 5758 5757 5756 5756 5755 5755 5754 5753 5753 5752 5752 5751 5750 5750 5749 5747 5746 5745 5744 5743 5742 5742 5741 5740 5738 5737
5781 5779 5777 5775 5773 5771 5768 5766 5765 5763 5762 5760 5759 5758 5758 5757 5756 5756 5755 5755 5754 5754 5753 5753 5752 5751 5751 5750 5750 5749 5748 5747 5746 5745 5744 5743 5742 5741 5740 5739 5738 5737 5735
5778 5777 5775 5773 5771 5769 5767 5765 5763 5761 5760 5758 5757 5756 5755 5755 5754 5754 5753 5753 5753 5752 5751 5751 5750 5750 5749 5748 5748 5747 5746 5745 5744 5744 5743 5742 5741 5740 5739 5738 5737 5735 5734
5775 5775 5774 5772 5770 5768 5766 5763 5761 5759 5758 5756 5755 5754 5753 5752 5751 5751 5751 5751 5750 5750 5749 5748 5748 5747 5746 5745 5745 5745 5744 5743 5742 5742 5741 5740 5740 5739 5737 5736 5735 5733 5732
5777 5775 5773 5771 5769 5767 5764 5762 5760 5758 5756 5754 5753 5752 5751 5750 5749 5749 5748 5748 5747 5747 5746 5745 5744 5744 5743 5743 5742 5742 5741 5741 5740 5739 5739 5739 5738 5738 5736 5735 5733 5731 5730
5775 5774 5772 5770 5767 5765 5763 5761 5758 5756 5754 5753 5751 5750 5749 5748 5747 5746 5745 5744 5744 5743 5743 5742 5742 5741 5741 5740 5740 5739 5739 5738 5738 5737 5737 5737 5736 5735 5734 5733 5731 5730 5729
5774 5773 5772 5770 5766 5764 5761 5759 5757 5755 5753 5751 5749 5748 5747 5745 5744 5743 5742 5742 5741 5741 5740 5740 5739 5738 5738 5737 5737 5736 5736 5736 5735 5735 5734 5734 5733 5733 5732 5731 5729 5728 5727
5774 5772 5771 5769 5766 5762 5759 5757 5755 5753 5751 5749 5747 5746 5744 5743 5742 5741 5740 5739 5739 5738 5738 5737 5736 5735 5734 5733 5733 5733 5733 5733 5732 5732 5731 5731 5730 5729 5729 5728 5727 5726 5724
5774 5772 5770 5768 5765 5761 5758 5756 5753 5751 5749 5746 5745 5743 5742 5741 5739 5738 5738 5737 5736 5736 5735 5734 5733 5732 5731 5730 5729 5729 5729 5729 5729 5729 5728 5727 5727 5726 5725 5724 5724 5723 5721
5773 5771 5770 5769 5764 5760 5757 5754 5751 5748 5746 5743 5742 5740 5739 5738 5737 5735 5735 5734 5733 5732 5731 5730 5729 5728 5726 5726 5725 5725 5725 5725 5725 5725 5724 5724 5723 5723 5722 5721 5720 5719 5718
5772 5769 5766 5765 5762 5758 5754 5750 5747 5745 5742 5740 5738 5737 5736 5735 5733 5732 5731 5731 5730 5729 5728 5727 5725 5723 5721 5721 5720 5720 5720 5720 5720 5721 5721 5720 5720 5719 5718 5718 5717 5716 5715
5770 5767 5763 5759 5756 5753 5749 5745 5742 5740 5738 5736 5735 5734 5732 5731 5730 5728 5728 5727 5726 5725 5724 5722 5720 5719 5718 5717 5717 5715 5715 5716 5717 5717 5717 5716 5716 5715 5714 5714 5713 5712 5711
5765 5761 5758 5754 5751 5748 5745 5741 5737 5734 5733 5732 5731 5730 5729 5727 5726 5724 5723 5722 5722 5721 5720 5719 5717 5715 5713 5713 5710 5708 5710 5712 5712 5713 5713 5712 5711 5711 5710 5710 5709 5708 5707
5760 5757 5754 5751 5747 5745 5743 5740 5736 5733 5729 5728 5726 5725 5724 5723 5722 5720 5719 5719 5718 5717 5716 5715 5713 5710 5709 5709 5706 5702 5700 5702 5706 5709 5708 5708 5707 5707 5707 5707 5706 5704 5704
5756 5753 5752 5747 5744 5741 5739 5736 5732 5728 5725 5724 5722 5722 5721 5720 5719 5717 5716 5715 5714 5713 5712 5710 5709 5707 5704 5704 5703 5700 5695 5693 5696 5701 5703 5703 5703 5703 5703 5703 5703 5702 5701
5752 5750 5747 5743 5740 5738 5736 5733 5728 5723 5720 5719 5718 5717 5717 5716 5714 5713 5712 5711 5710 5709 5708 5707 5705 5704 5702 5699 5699 5698 5697 5696 5691 5691 5695 5697 5698 5699 5699 5700 5699 5698 5697
5747 5744 5741 5738 5735 5733 5731 5728 5724 5720 5718 5716 5715 5713 5712 5711 5710 5709 5708 5707 5706 5705 5704 5703 5702 5700 5699 5697 5695 5694 5692 5691 5690 5686 5685 5689 5692 5694 5695 5696 5695 5695 5694
5741 5738 5735 5731 5729 5727 5725 5723 5720 5716 5713 5711 5709 5707 5706 5705 5704 5704 5703 5702 5701 5700 5699 5698 5698 5697 5695 5694 5692 5691 5689 5687 5686 5684 5682 5682 5684 5688 5690 5691 5691 5691 5690